Location: *
(46.4000°N, 12.6667°E)
Time: 23:50:53
(UTC+00:00)

X-37B - Pass Details

Date: 07 December 2021
Orbit: 334 x 337 km, 45.0° (Epoch: 11 January)

Event Time Altitude Azimuth Distance (km) Brightness Sun altitude
Rises 17:14:07 0° 225° (SW) 2,095 5.3 -18.4°
Reaches altitude 10° 17:16:20 10° 210° (SSW) 1,262 3.8 -18.8°
Enters shadow 17:18:04 21° 175° (S) 815 2.3 -19.1°
